Login

Heerenveen

Pos Pair Lane Name Born Nation Time
1 9 O Haotian Wang 1998 China 1:08.80
2 10 I Cooper McLeod 2001 USA 1:09.14
3 13 I Piotr Michalski 1994 Poland 1:09.26
4 8 O Mathias Vosté 1994 Belgium 1:09.34
5 11 I Ziwen Lian 1998 China 1:09.35
6 11 O Hendrik Dombek 1997 Germany 1:09.46
7 12 I Louis Hollaar 1998 Netherlands 1:09.512
8 8 I Conor McDermott-Mostowy 1999 USA 1:09.513
9 9 I Austin Kleba 1999 USA 1:09.68
10 13 O Tyson Langelaar 1999 Canada 1:09.70
11 7 O Seonghyeon Park 1999 South Korea 1:09.77
12 10 O Odin By Farstad 1997 Norway 1:09.84
13 3 O Alessio Trentini 1994 Italy 1:10.02
14 6 I Stefan Emele 1996 Germany 1:10.07
15 6 O Artur Galiyev 2000 Kazakhstan 1:10.09
16 12 O Nil Llop 2002 Spain 1:10.11
17 5 I Dmitriy Morozov 1996 Kazakhstan 1:10.28
18 3 I Christopher Fiola 1996 Canada 1:10.36
19 7 I Samuli Suomalainen 1998 Finland 1:10.48
20 2 I Pål Myhren Kristensen 2000 Norway 1:10.80
21 5 O Kyungrae Kim 2003 South Korea 1:10.922
22 1 I Marek Kania 1998 Poland 1:10.923
23 4 O Wei-Lin Tai 1997 Taiwan 1:11.39
24 2 O Michael Roth 1999 Germany 1:11.60
25 1 O Szymon Wojtakowski 2005 Poland 1:11.66
26 4 I Ignaz Gschwentner 2002 Austria 1:12.03

Info

What World Cup B-group
Discipline 1.000
Host Heerenveen
Nation Netherlands
Date Friday 18.Nov 2022
Calendar 2022/2023
Air Temp 14.5 C
Ice Temp -9.6 C
Humidity 43.7 %